Weather in Nagaoka

Japan     35°02′38″N   138°56′40″E
temp.,
°C
wind,
m/s
gust,
m/s
humid.,
%
clouds,
%
prec.,
mm/h
press.,
hPa
HPBL,
m
12 april, mon
mon1200:00+8e117351 0.0 103497
03:00+8ene117727 0.0 103477
06:00+9ene237822 0.1 1034126
09:00+12e446265 0.2 10341214
12:00+13e445592 0.1 10321556
15:00+13ese4457100 0.1 10301253
18:00+10se23699 0.0 1031330
21:00+9se1172100 0.0 103169
13 april, tue
tue1300:00+9n0169100 0.0 102926
03:00+10nnw0176100 0.1 102741
06:00+10w118297 0.3 102669
09:00+13sw2572100 0.8 1023962
12:00+13wsw2476100 0.4 1020715
15:00+12wsw2492100 0.8 1018342
18:00+11w2295100 0.4 1017146
21:00+12wsw1297100 2.4 101696
14 april, wed
wed1400:00+13wsw379863 0.2 1014297
03:00+13wsw3497100 0.3 1012160
06:00+13wsw2398100 0.6 1010126
09:00+14wsw1298100 6.2 100977
12:00+16w1294100 6.1 1005316
15:00+16n219066 6.4 1004369
18:00+12ene4793100 0.4 1007462
21:00+10ene7109199 1.1 1011814
15 april, thu
thu1500:00+7ene6987100 0.9 1015777
03:00+7ene6876100 1.3 1017839
06:00+6ene5865100 0.0 1020631
09:00+8ene455090 0.0 1022868
12:00+10ene334629 0.0 1022870
15:00+11e22435 0.0 1022961
18:00+8se346398 0.0 1024311
21:00+8se2472100 0.0 1026367
16 april, fri
fri1600:00+8ese247064 0.0 1026349
03:00+8ene117395 0.0 102692
06:00+8nne117679 0.0 102799
09:00+12ene1160100 0.0 10271042
12:00+13e3362100 0.0 10251082
15:00+12ese3469100 0.1 1024716
18:00+11ese3478100 0.1 1026377
21:00+11ese1280100 0.4 1027207